{"data":{"norad_id":68420,"intl_designator":"2026-067E","name":"ERMIS-2","alt_names":[],"object_type":"PAYLOAD","status":"ACTIVE","operator":null,"country":"GREC","launch_date":"2026-03-30","launch_site_code":"AFWTR","launch_vehicle":null,"mission":null,"orbit_class":"UNKNOWN","rcs_meters":null,"size_class":null,"mass_kg":null,"dimensions":null,"purposes":[],"wikipedia_slug":null,"has_3d_model":false,"image_url":null,"decayed_at":null,"tle_current":{"epoch":"2026-05-24T20:13:39.258336Z","epoch_age_seconds":98807,"freshness":"FRESH","line1":"1 68420U 26067E   26144.84281549  .00009202  00000+0  43936-3 0  9999","line2":"2 68420  97.4463 103.6792 0002086  51.3489 308.7932 15.19268770  8409","mean_motion":15.1926877,"eccentricity":0.0002086,"inclination_deg":97.4463,"raan_deg":103.6792,"arg_perigee_deg":51.3489,"mean_anomaly_deg":308.7932,"bstar":0.00043936,"rev_number":840,"period_min":94.782439317831,"perigee_km":506.61283502705,"apogee_km":509.4857519487,"semimajor_km":6886.1862934879,"source":"CELESTRAK","updated_at":"2026-05-25T13:38:07.811448Z"}}}